CW2751 Weather Reports


Display with metric or nautical units.
time (UTC)temp
F
wind
direction
speed
MPH
gust
MPH
rain 1hr
in
rain 24hr
in
rain mn
in
humidity
%
barometer
mb
20260506084519 35 82 2.0 0.0 0.00 0.00 0.00 93 1013.9
20260506083024 35 44 3.0 0.0 0.00 0.00 0.00 93 1013.9
20260506081548 36 61 2.0 0.0 0.00 0.00 0.00 93 1013.8
20260506073047 36 83 3.0 0.0 0.00 0.00 0.00 92 1014.0
20260506071607 36 86 5.0 0.0 0.00 0.00 0.00 92 1013.9
20260506070104 36 75 3.0 0.0 0.00 0.00 0.00 92 1014.0
20260506061510 36 59 3.0 0.0 0.00 0.00 0.00 92 1014.2
20260506044502 38 46 1.0 0.0 0.00 0.00 0.00 92 1013.0
20260506043010 38 46 1.0 0.0 0.00 0.00 0.00 92 1013.0
20260506041502 38 13 1.0 0.0 0.00 0.00 0.00 91 1013.2
20260506040011 39 18 2.0 0.0 0.00 0.00 0.00 91 1013.2
20260506034507 39 37 3.0 0.0 0.00 0.00 0.00 91 1012.7
20260506033010 39 15 1.0 0.0 0.00 0.00 0.00 91 1012.8
20260506031538 39 54 3.0 0.0 0.00 0.00 0.00 91 1012.4
20260506030008 39 8 1.0 0.0 0.00 0.00 0.00 91 1012.5
20260506024540 39 8 1.0 0.0 0.00 0.00 0.00 90 1012.1
20260506023042 40 357 2.0 0.0 0.00 0.00 0.00 90 1011.7
20260506021541 40 130 1.0 0.0 0.00 0.00 0.00 90 1011.6
20260506020058 40 130 0.0 0.0 0.00 0.00 0.00 90 1011.4
20260506014542 40 130 0.0 0.0 0.00 0.00 0.00 90 1011.1
20260506013037 40 130 1.0 0.0 0.00 0.00 0.00 89 1010.6
20260506011541 41 103 2.0 0.0 0.00 0.00 0.00 89 1010.3
20260506010040 41 120 1.0 0.0 0.00 0.00 0.00 89 1010.3
20260506004544 41 142 1.0 0.0 0.00 0.00 0.00 89 1010.3
20260506003050 41 121 1.0 0.0 0.00 0.00 0.00 88 1010.2
20260506001513 41 131 2.0 0.0 0.00 0.00 0.00 88 1010.1
20260506000047 42 117 2.0 0.0 0.00 0.00 0.00 88 1009.8
20260505234552 42 87 4.0 0.0 0.00 0.00 0.00 88 1009.7
20260505233047 42 76 4.0 0.0 0.00 0.00 0.00 88 1009.7
20260505231552 42 73 5.0 0.0 0.00 0.00 0.00 88 1009.6
20260505230016 42 79 4.0 0.0 0.00 0.00 0.00 88 1009.6
20260505224542 42 73 4.0 0.0 0.00 0.00 0.00 88 1009.5
20260505223009 42 58 5.0 0.0 0.00 0.00 0.00 88 1009.5
20260505221516 42 76 5.0 0.0 0.00 0.00 0.00 89 1009.5
20260505220036 42 86 4.0 0.0 0.00 0.00 0.00 89 1009.4
20260505214559 42 87 5.0 0.0 0.00 0.00 0.00 89 1009.7
20260505213011 42 103 4.0 0.0 0.00 0.00 0.00 89 1009.8
20260505211536 43 80 1.0 0.0 0.00 0.00 0.00 88 1009.9
20260505210040 43 75 2.0 0.0 0.00 0.00 0.00 88 1010.0
20260505204532 42 75 2.0 0.0 0.00 0.00 0.00 88 1010.3
20260505203043 42 76 1.0 0.0 0.00 0.00 0.00 88 1010.3
20260505201546 42 79 3.0 0.0 0.00 0.00 0.00 88 1010.3
20260505200031 42 97 4.0 0.0 0.00 0.00 0.00 88 1009.7
20260505194534 42 78 4.0 0.0 0.00 0.00 0.00 89 1009.4
20260505193010 42 44 4.0 0.0 0.00 0.00 0.00 89 1009.8
20260505191515 42 20 2.0 0.0 0.00 0.00 0.00 89 1010.2
20260505190035 42 35 2.0 0.0 0.00 0.00 0.00 90 1010.0
20260505184601 42 27 3.0 0.0 0.00 0.00 0.00 90 1010.1
20260505183050 42 49 1.0 0.0 0.00 0.00 0.00 90 1010.4
20260505181543 41 10 2.0 0.0 0.00 0.00 0.00 90 1010.6
20260505180039 41 15 2.0 0.0 0.00 0.00 0.00 90 1010.3
20260505174559 41 21 2.0 0.0 0.00 0.00 0.00 90 1010.5
20260505174501 41 21 2.0 0.0 0.00 0.00 0.00 90 1010.5
20260505173003 41 62 3.0 0.0 0.00 0.00 0.00 90 1010.5
20260505171539 41 61 4.0 0.0 0.00 0.00 0.00 90 1010.6
20260505170056 41 80 3.0 0.0 0.00 0.00 0.00 90 1010.5
20260505164511 40 87 3.0 0.0 0.00 0.00 0.00 90 1010.5
20260505163033 40 49 4.0 0.0 0.00 0.00 0.00 90 1010.6
20260505161538 40 46 4.0 0.0 0.00 0.00 0.00 90 1010.5
20260505153048 40 45 7.0 0.0 0.00 0.00 0.00 91 1009.6
20260505151518 40 31 6.0 0.0 0.00 0.00 0.00 90 1009.6
20260505124526 41 358 3.0 0.0 0.00 0.00 0.00 88 1006.8
20260505123109 41 42 1.0 0.0 0.00 0.00 0.00 88 1006.4
20260505121523 41 42 1.0 0.0 0.00 0.00 0.00 88 1006.1
20260505120015 41 42 3.0 0.0 0.00 0.00 0.00 87 1005.0
20260505114534 41 34 4.0 0.0 0.00 0.00 0.00 87 1004.8
20260505113009 41 6 5.0 0.0 0.00 0.00 0.00 86 1004.4
20260505111518 41 46 5.0 0.0 0.00 0.00 0.00 86 1004.3
20260505101522 42 39 9.0 0.0 0.00 0.00 0.00 85 1002.9
20260505100029 42 44 9.0 0.0 0.00 0.00 0.00 85 1002.5
20260505094548 43 41 8.0 0.0 0.00 0.00 0.00 85 1002.3
20260505093005 43 18 8.0 0.0 0.00 0.00 0.00 84 1002.2
20260505091510 43 25 12.0 0.0 0.00 0.00 0.00 83 1002.1
20260505090009 44 20 11.0 0.0 0.00 0.00 0.00 82 1001.7